Regional Weather Roundup
Issued by NWS Green Bay, WI

Home | Current Version | Previous Version | Graphics & Text | Print | Product List | Glossary Off
Versions: 1 2 3 4 5 6 7 8 9 10 11 12 13 14 15 16 17 18 19 20 21 22 23 24 25 26 27 28 29 30 31 32 33 34 35 36 37 38 39 40 41 42 43 44 45 46 47 48 49 50

000
ASUS43 KGRB 221959
RWRGRB

NORTH-CENTRAL AND NORTHEAST WISCONSIN REGIONAL WEATHER ROUNDUP
NATIONAL WEATHER SERVICE GREEN BAY WI
300 PM CDT FRI AUG 22 2014

WIZ005-009-010>012-018-019-222100-
NORTH CENTRAL WISCONSIN

CITY           SKY/WX    TMP DP  RH WIND       PRES   REMARKS
IRONWOOD       CLOUDY    70  66  88 N6        29.96R
MANITOWISH WTR NOT AVBL
ARBOR VITAE    NOT AVBL
EAGLE RIVER    NOT AVBL
LAND O LAKES   NOT AVBL
RHINELANDER    CLOUDY    71  69  93 SE3       29.99F
PHILLIPS       CLOUDY    71  69  95 CALM      29.98S
ANTIGO         NOT AVBL
TOMAHAWK       NOT AVBL
MERRILL        NOT AVBL
$$

WIZ013-073-222100-
NORTHEAST WISCONSIN

CITY           SKY/WX    TMP DP  RH WIND       PRES   REMARKS
IRON MOUNTAIN  CLOUDY    74  68  81 E5        29.97F
MARINETTE      CLOUDY    73  68  83 E8        29.96F
$$

WIZ017-030-035>037-045-222100-
CENTRAL WISCONSIN

CITY           SKY/WX    TMP DP  RH WIND       PRES   REMARKS
MEDFORD        NOT AVBL
WAUSAU         LGT RAIN  81  73  76 NW5       29.94F
MOSINEE        PTSUNNY   81  75  83 SW7       29.96F
MARSHFIELD     LGT RAIN  79  74  84 SW6       29.96S
WISC RAPIDS    MOSUNNY   86  73  65 SW9       29.95S HX  93
STEVENS POINT  NOT AVBL
WAUPACA        NOT AVBL
SHAWANO        CLOUDY    79  72  78 NE5       29.95F HAZE
CLINTONVILLE   NOT AVBL
$$

WIZ038-039-048-051-222100-
FOX VALLEY

CITY           SKY/WX    TMP DP  RH WIND       PRES   REMARKS
NWS GREEN BAY  PTSUNNY   82  72  71 CALM      29.94F
APPLETON       PTSUNNY   81  73  78 VRB3      29.95F
OSHKOSH        SUNNY     82  74  76 NE8       29.92F
FOND DU LAC    MOSUNNY   85  70  60 NW3       29.93F
$$

WIZ022-050-052-222100-
EAST CENTRAL WISCONSIN

CITY           SKY/WX    TMP DP  RH WIND       PRES   REMARKS
STURGEON BAY   CLOUDY    72  68  88 SE7       29.98F
MANITOWOC      NOT AVBL
SHEBOYGAN      PTSUNNY   79  71  76 E6        29.95S
$$

LMZ563-521-522-541>543-222100-
LAKESHORE

STATION/POSITION TIME  TEMP    WIND        PRES    VSBY  WAVE
                       AIR SEA DIR/SP/G                  HT/PER
                 (UTC) (F)     (DEG/KT/KT) (MB)    (MI)  (FT/S)
SHEBOYGAN LKSHOR 1900   69 64  100/  4/  4 1014.6F
KEWAUNEE LKSHORE 1900   69     110/  4/  6 1014.2F
NORTHPORT PIER   1900   67     100/  7/  7 1015.2F
N MID LAKE BUOY  1900   68 67  330/  4/  6 1015.4R         0
S GREEN BAY BUOY 1900   72     VRB  6      1015.6F
SISTER BAY LKSHO 1900   82     200/  6/  9   N/A
CHAMBERS ISLAND  1900   71     360/  6/  7 1015.2F
MENOMINEE LKSHOR 1900   69      20/  6/  6 1015.5F
$$


USA.gov is the U.S. government's official web portal to all federal, state and local government web resources and services.